STARLINK-34548, 64716

Orbit data source: Space-Track

STARLINK-34548, 64716 is a payload satellite owned by SpaceX/Seattle (US) in LEO that was launched on Sat, 28 Jun 2025 UTC via an FALCON 9 launch vehicle from the Air Force Western Test Range (AFWTR). Payload-class satellites include a variety of spacecraft equipped with specific instruments for various scientific and technological missions. These include communications satellites like Starlink; space stations such as the ISS; scientific satellites like the Hubble; Earth observation satellites from companies like Planet Labs, Umbra, and HawkEye 360; GPS; miniature CubeSats for education and research; and military/defense satellites.

Not visible in the next 10 days
Identifier
64716, 2025-142W
Orbit
LEO
Last TLE update
8 hours ago
Origin
Manufacturer
SpaceX/Seattle
Mission
Operational spacecraft
Bus & Motor
STARLINK V2MO, Unknown motor
Mass
575 kg wet, ~530 kg dry
Launch date (UTC)
2025-06-28 (1 week ago)
Launch vehicle
FALCON 9
Launch site
Air Force Western Test Range (AFWTR)
Object type
Payload
Rocket body
Debris
Shape & HBR
Unknown
Radar Cross Section
RCS unknown

Expand to show TLE details & history

TLE from 8 hours ago
0 STARLINK-34548
1 64716U 25142W   25186.58335648 -.01282570  00000-0 -50321-2 0  9992
2 64716  69.9945 231.3031 0003918 278.5435  75.6375 15.89105593  2085
Epoch: 2025-07-05T14:00Z
TLE epoch observation values (Epoch: 2025-07-05T14:00:01.999Z)
Latitude
-5.57469°
Longitude
95.45049°
Altitude
307.553 km
Speed
7.724 km/s
True Right ascension
15h 17m 06s
True Declination
-5° 32' 22"
Sunlit
Object was in full shadow at epoch
Visualization orbit readout
Latitude
18.48686°
Longitude
103.50493°
Altitude
309.743 km
Speed
7.724 km/s
Apparent Right ascension
18h 14m 56s
Apparent Declination
-13° 23' 59"
Sunlit
Object is in full shadow
Visualization observer readout
Local Sidereal Time
09:35:52
Azimuth
73.496° E
Elevation
-38.753°
Doppler factor
1
Orbital elements
Apogee altitude
305.273 km
Perigee altitude
300.038 km
Semi-major axis
6,680.793 km
Eccentricity
0.00039
Inclination
69.9945°
RAAN
231.3031°
Arg. of periapsis
278.5435°
True anomaly
Unknown
Mean anomaly
75.6375°
Eccentric anomaly
Unknown
Mean motion
3.97467 °/min
Orbital period
90.57 mins
BSTAR
-0.0050321
Loading maneuver chart data...
Loading SW <> Apogee altitude chart data...
Loading historical data...
Loading historical data...
Loading historical data...
Loading historical data...
Loading historical data...
Loading historical data...
Loading historical data...

STARLINK-34548 Visibility

Observer location: undefined°, undefined°

STARLINK-34548 is likely not visible in the next few days
Span
Click to sort rows by Start time (UTC) header in descending order
Start Az.
Max El. time (UTC)
Max El. Az.
Max El.
End time (UTC)
End Az.
|